Terminal Aerodrome Forecast
Issued by NWS

Home | Current Version | Previous Version | Text Only | Print | Product List | Glossary On
Versions: 1 2 3 4 5 6 7 8 9 10 11 12 13 14 15 16 17 18
000
FTUS41 KBTV 291403 AAA
TAFMSS
TAF AMD
KMSS 291403Z 2914/3012 14009KT P6SM VCSH OVC080
      TEMPO 2914/2918 4SM -SHRA BR OVC020
     FM291800 17010G18KT P6SM VCSH BKN035
     FM292300 18009KT P6SM VCSH BKN035
     FM300000 19008KT P6SM SCT040
     FM301000 19007KT P6SM VCSH BKN100=

USA.gov is the U.S. government's official web portal to all federal, state and local government web resources and services.